| time (UTC) | temp C | wind direction | speed KPH | gust KPH | rain 1hr cm | rain 24hr cm | rain mn cm | humidity % | barometer mb |
| 20260506011316 | 7 | 132 | 0.0 | 1.6 | 0.00 | 0.00 | 0.00 | 79 | 1015.8 |
| 20260506010316 | 7 | 89 | 0.0 | 3.2 | 0.00 | 0.00 | 0.00 | 78 | 1015.9 |
| 20260506005317 | 7 | 97 | 0.0 | 3.2 | 0.00 | 0.00 | 0.00 | 78 | 1015.9 |
| 20260506004320 | 7 | 108 | 0.0 | 3.2 | 0.00 | 0.00 | 0.00 | 78 | 1016.0 |
| 20260506003318 | 8 | 126 | 1.6 | 4.8 | 0.00 | 0.00 | 0.00 | 77 | 1016.0 |
| 20260506002317 | 8 | 137 | 0.0 | 1.6 | 0.00 | 0.00 | 0.00 | 77 | 1016.1 |
| 20260506001317 | 8 | 0.0 | 0.0 | 0.00 | 0.00 | 0.00 | 77 | 1016.1 | |
| 20260506000318 | 8 | 57 | 3.2 | 8.0 | 0.00 | 0.00 | 0.00 | 77 | 1016.0 |
| 20260505235318 | 8 | 51 | 0.0 | 0.0 | 0.00 | 0.00 | 0.00 | 77 | 1016.0 |
| 20260505234318 | 8 | 162 | 0.0 | 4.8 | 0.00 | 0.00 | 0.00 | 77 | 1016.0 |
| 20260505233318 | 8 | 128 | 0.0 | 3.2 | 0.00 | 0.00 | 0.00 | 77 | 1015.9 |
| 20260505232318 | 8 | 48 | 1.6 | 3.2 | 0.00 | 0.00 | 0.00 | 77 | 1015.9 |
| 20260505231338 | 8 | 96 | 0.0 | 1.6 | 0.00 | 0.00 | 0.00 | 77 | 1015.9 |
| 20260505230319 | 8 | 83 | 3.2 | 8.0 | 0.00 | 0.00 | 0.00 | 78 | 1016.0 |
| 20260505225316 | 8 | 106 | 1.6 | 4.8 | 0.00 | 0.00 | 0.00 | 79 | 1016.0 |
| 20260505224316 | 8 | 77 | 1.6 | 4.8 | 0.00 | 0.00 | 0.00 | 80 | 1016.1 |
| 20260505223336 | 8 | 78 | 1.6 | 6.4 | 0.00 | 0.00 | 0.00 | 82 | 1016.0 |
| 20260505222320 | 8 | 108 | 3.2 | 6.4 | 0.00 | 0.00 | 0.00 | 82 | 1016.0 |
| 20260505221400 | 8 | 83 | 3.2 | 6.4 | 0.00 | 0.00 | 0.00 | 85 | 1016.1 |
| 20260505220317 | 7 | 40 | 0.0 | 0.0 | 0.00 | 0.00 | 0.00 | 84 | 1016.1 |
| 20260505215317 | 7 | 0.0 | 0.0 | 0.00 | 0.00 | 0.00 | 84 | 1015.9 | |
| 20260505214317 | 7 | 0.0 | 0.0 | 0.00 | 0.00 | 0.00 | 83 | 1015.9 | |
| 20260505213317 | 7 | 0.0 | 0.0 | 0.00 | 0.00 | 0.00 | 83 | 1015.8 | |
| 20260505212317 | 7 | 0.0 | 0.0 | 0.00 | 0.00 | 0.00 | 83 | 1015.9 | |
| 20260505211318 | 7 | 0.0 | 0.0 | 0.00 | 0.00 | 0.00 | 82 | 1015.9 | |
| 20260505210318 | 8 | 0.0 | 0.0 | 0.00 | 0.00 | 0.00 | 82 | 1015.8 | |
| 20260505205338 | 8 | 0.0 | 0.0 | 0.00 | 0.00 | 0.00 | 81 | 1015.8 | |
| 20260505204318 | 8 | 0.0 | 0.0 | 0.00 | 0.00 | 0.00 | 81 | 1015.8 | |
| 20260505203358 | 8 | 0.0 | 0.0 | 0.00 | 0.00 | 0.00 | 80 | 1015.9 | |
| 20260505202318 | 8 | 0.0 | 0.0 | 0.00 | 0.00 | 0.00 | 80 | 1015.9 | |
| 20260505201318 | 8 | 0.0 | 0.0 | 0.00 | 0.00 | 0.00 | 79 | 1015.9 | |
| 20260505200319 | 8 | 0.0 | 0.0 | 0.00 | 0.00 | 0.00 | 78 | 1015.8 | |
| 20260505195338 | 8 | 0.0 | 0.0 | 0.00 | 0.00 | 0.00 | 78 | 1015.8 | |
| 20260505194319 | 8 | 0.0 | 0.0 | 0.00 | 0.00 | 0.00 | 77 | 1015.8 | |
| 20260505193319 | 8 | 0.0 | 0.0 | 0.00 | 0.00 | 0.00 | 77 | 1015.7 | |
| 20260505192319 | 9 | 304 | 0.0 | 1.6 | 0.00 | 0.00 | 0.00 | 76 | 1015.6 |
| 20260505191316 | 9 | 314 | 0.0 | 4.8 | 0.00 | 0.00 | 0.00 | 76 | 1015.6 |
| 20260505190317 | 10 | 284 | 0.0 | 1.6 | 0.00 | 0.00 | 0.00 | 75 | 1015.5 |
| 20260505185319 | 10 | 255 | 1.6 | 4.8 | 0.00 | 0.00 | 0.00 | 74 | 1015.5 |
| 20260505184320 | 10 | 0.0 | 0.0 | 0.00 | 0.00 | 0.00 | 74 | 1015.5 | |
| 20260505183317 | 11 | 344 | 1.6 | 6.4 | 0.00 | 0.00 | 0.00 | 72 | 1015.5 |
| 20260505182337 | 11 | 288 | 1.6 | 6.4 | 0.00 | 0.00 | 0.00 | 70 | 1015.6 |
| 20260505181317 | 11 | 268 | 4.8 | 9.7 | 0.00 | 0.00 | 0.00 | 68 | 1015.6 |
| 20260505180318 | 11 | 292 | 1.6 | 8.0 | 0.00 | 0.00 | 0.00 | 68 | 1015.6 |
| 20260505175318 | 12 | 309 | 1.6 | 6.4 | 0.00 | 0.00 | 0.00 | 66 | 1015.6 |
| 20260505174318 | 11 | 301 | 3.2 | 8.0 | 0.00 | 0.00 | 0.00 | 67 | 1015.6 |
| 20260505173318 | 12 | 308 | 3.2 | 8.0 | 0.00 | 0.00 | 0.00 | 66 | 1015.6 |
| 20260505172318 | 12 | 5 | 4.8 | 9.7 | 0.00 | 0.00 | 0.00 | 63 | 1015.6 |
| 20260505171319 | 12 | 259 | 1.6 | 6.4 | 0.00 | 0.00 | 0.00 | 64 | 1015.6 |
| 20260505170319 | 11 | 309 | 1.6 | 4.8 | 0.00 | 0.00 | 0.00 | 67 | 1015.6 |
| 20260505165316 | 12 | 289 | 3.2 | 6.4 | 0.00 | 0.00 | 0.00 | 65 | 1015.6 |
| 20260505164339 | 12 | 287 | 1.6 | 4.8 | 0.00 | 0.00 | 0.00 | 65 | 1015.7 |
| 20260505163419 | 12 | 283 | 4.8 | 9.7 | 0.00 | 0.00 | 0.00 | 65 | 1015.6 |
| 20260505162321 | 12 | 269 | 0.0 | 4.8 | 0.00 | 0.00 | 0.00 | 68 | 1015.7 |
| 20260505161324 | 12 | 348 | 3.2 | 9.7 | 0.00 | 0.00 | 0.00 | 67 | 1015.7 |
| 20260505160339 | 12 | 268 | 3.2 | 6.4 | 0.00 | 0.00 | 0.00 | 66 | 1015.7 |
| 20260505153317 | 12 | 265 | 0.0 | 4.8 | 0.00 | 0.00 | 0.00 | 66 | 1015.8 |
| 20260505152320 | 11 | 277 | 1.6 | 4.8 | 0.00 | 0.00 | 0.00 | 68 | 1015.7 |
| 20260505151318 | 11 | 4 | 3.2 | 8.0 | 0.00 | 0.00 | 0.00 | 69 | 1015.7 |
| 20260505150318 | 11 | 341 | 4.8 | 11.3 | 0.00 | 0.00 | 0.00 | 70 | 1015.9 |
| 20260505140318 | 12 | 279 | 3.2 | 6.4 | 0.00 | 0.00 | 0.00 | 65 | 1015.9 |
| 20260505124340 | 11 | 310 | 3.2 | 6.4 | 0.00 | 0.00 | 0.00 | 70 | 1016.0 |
| 20260505123357 | 11 | 295 | 4.8 | 9.7 | 0.00 | 0.00 | 0.00 | 71 | 1016.1 |
| 20260505122317 | 11 | 339 | 6.4 | 12.9 | 0.00 | 0.00 | 0.00 | 75 | 1016.0 |
| 20260505121317 | 11 | 333 | 3.2 | 8.0 | 0.00 | 0.00 | 0.00 | 77 | 1016.1 |
| 20260505120318 | 11 | 324 | 3.2 | 9.7 | 0.00 | 0.00 | 0.00 | 75 | 1016.1 |
| 20260505115318 | 11 | 290 | 4.8 | 8.0 | 0.00 | 0.00 | 0.00 | 72 | 1016.0 |
| 20260505114318 | 11 | 324 | 4.8 | 9.7 | 0.00 | 0.00 | 0.00 | 72 | 1016.0 |
| 20260505113318 | 11 | 294 | 4.8 | 9.7 | 0.00 | 0.00 | 0.00 | 73 | 1016.0 |
| 20260505112318 | 11 | 294 | 3.2 | 8.0 | 0.00 | 0.00 | 0.00 | 74 | 1016.0 |
| 20260505111318 | 11 | 327 | 1.6 | 4.8 | 0.00 | 0.00 | 0.00 | 74 | 1015.9 |
| 20260505110319 | 10 | 306 | 1.6 | 4.8 | 0.00 | 0.00 | 0.00 | 75 | 1015.9 |
| 20260505101319 | 10 | 291 | 3.2 | 11.3 | 0.00 | 0.00 | 0.00 | 85 | 1015.9 |
| 20260505100337 | 10 | 278 | 4.8 | 11.3 | 0.00 | 0.00 | 0.00 | 84 | 1015.8 |
| 20260505095316 | 10 | 261 | 3.2 | 8.0 | 0.00 | 0.00 | 0.00 | 81 | 1015.7 |
| 20260505094317 | 11 | 334 | 4.8 | 12.9 | 0.00 | 0.00 | 0.00 | 82 | 1015.7 |
| 20260505093317 | 11 | 318 | 4.8 | 9.7 | 0.00 | 0.00 | 0.00 | 85 | 1015.6 |
| 20260505092320 | 11 | 24 | 3.2 | 4.8 | 0.00 | 0.00 | 0.00 | 88 | 1015.7 |
| 20260505091320 | 10 | 281 | 1.6 | 3.2 | 0.00 | 0.00 | 0.00 | 91 | 1015.7 |
| 20260505090317 | 10 | 312 | 0.0 | 3.2 | 0.00 | 0.00 | 0.00 | 93 | 1015.8 |
| 20260505085317 | 10 | 0.0 | 0.0 | 0.00 | 0.00 | 0.00 | 94 | 1015.8 | |
| 20260505084318 | 9 | 0.0 | 0.0 | 0.00 | 0.00 | 0.00 | 95 | 1015.9 | |
| 20260505083317 | 8 | 0.0 | 0.0 | 0.00 | 0.00 | 0.00 | 95 | 1015.9 | |
| 20260505082318 | 7 | 0.0 | 0.0 | 0.00 | 0.00 | 0.00 | 95 | 1015.9 | |
| 20260505081318 | 7 | 0.0 | 0.0 | 0.00 | 0.00 | 0.00 | 96 | 1016.0 | |
| 20260505080318 | 7 | 0.0 | 0.0 | 0.00 | 0.00 | 0.00 | 96 | 1015.9 | |
| 20260505075318 | 6 | 0.0 | 0.0 | 0.00 | 0.00 | 0.00 | 96 | 1015.9 | |
| 20260505074319 | 6 | 82 | 0.0 | 3.2 | 0.00 | 0.00 | 0.00 | 96 | 1016.0 |
| 20260505073359 | 6 | 75 | 0.0 | 1.6 | 0.00 | 0.00 | 0.00 | 96 | 1015.9 |
| 20260505072319 | 6 | 67 | 0.0 | 3.2 | 0.00 | 0.00 | 0.00 | 96 | 1016.0 |
| 20260505071319 | 6 | 0.0 | 0.0 | 0.00 | 0.00 | 0.00 | 96 | 1015.9 | |
| 20260505070316 | 6 | 0.0 | 0.0 | 0.00 | 0.00 | 0.00 | 96 | 1015.9 | |
| 20260505065339 | 5 | 0.0 | 0.0 | 0.00 | 0.00 | 0.00 | 96 | 1016.0 | |
| 20260505064319 | 5 | 0.0 | 0.0 | 0.00 | 0.00 | 0.00 | 96 | 1016.0 | |
| 20260505063340 | 5 | 0.0 | 0.0 | 0.00 | 0.00 | 0.00 | 96 | 1016.0 | |
| 20260505062320 | 5 | 67 | 0.0 | 3.2 | 0.00 | 0.00 | 0.00 | 96 | 1016.0 |
| 20260505061317 | 5 | 52 | 0.0 | 1.6 | 0.00 | 0.00 | 0.00 | 96 | 1016.1 |
| 20260505060317 | 5 | 134 | 0.0 | 3.2 | 0.00 | 0.00 | 0.00 | 96 | 1016.0 |
| 20260505055317 | 5 | 99 | 1.6 | 3.2 | 0.00 | 0.00 | 0.00 | 96 | 1016.1 |
| 20260505054318 | 5 | 0.0 | 0.0 | 0.00 | 0.00 | 0.00 | 96 | 1016.0 | |
| 20260505053318 | 5 | 0.0 | 0.0 | 0.00 | 0.00 | 0.00 | 96 | 1015.9 | |
| 20260505052318 | 4 | 115 | 0.0 | 1.6 | 0.00 | 0.00 | 0.00 | 96 | 1015.9 |
| 20260505051358 | 4 | 0.0 | 0.0 | 0.00 | 0.00 | 0.00 | 96 | 1015.8 | |
| 20260505050318 | 4 | 0.0 | 0.0 | 0.00 | 0.00 | 0.00 | 96 | 1015.7 | |
| 20260505041319 | 3 | 0.0 | 0.0 | 0.00 | 0.00 | 0.00 | 95 | 1015.6 | |
| 20260505040319 | 3 | 0.0 | 0.0 | 0.00 | 0.00 | 0.00 | 95 | 1015.5 | |
| 20260505035319 | 3 | 0.0 | 0.0 | 0.00 | 0.00 | 0.00 | 95 | 1015.6 | |
| 20260505034319 | 3 | 0.0 | 0.0 | 0.00 | 0.00 | 0.00 | 95 | 1015.6 | |
| 20260505033316 | 3 | 0.0 | 0.0 | 0.00 | 0.00 | 0.00 | 95 | 1015.6 | |
| 20260505032317 | 3 | 0.0 | 0.0 | 0.00 | 0.00 | 0.00 | 95 | 1015.6 | |
| 20260505031320 | 3 | 0.0 | 0.0 | 0.00 | 0.00 | 0.00 | 95 | 1015.7 | |
| 20260505030320 | 3 | 0.0 | 0.0 | 0.00 | 0.00 | 0.00 | 95 | 1015.7 | |
| 20260505025317 | 4 | 0.0 | 0.0 | 0.00 | 0.00 | 0.00 | 95 | 1015.7 | |
| 20260505024317 | 4 | 200 | 0.0 | 3.2 | 0.00 | 0.00 | 0.00 | 95 | 1015.7 |
| 20260505023317 | 4 | 0.0 | 0.0 | 0.00 | 0.00 | 0.00 | 95 | 1015.8 | |
| 20260505022318 | 4 | 0.0 | 0.0 | 0.00 | 0.00 | 0.00 | 95 | 1015.9 | |
| 20260505021338 | 4 | 0.0 | 0.0 | 0.00 | 0.00 | 0.00 | 94 | 1015.9 | |
| 20260505020318 | 5 | 0.0 | 0.0 | 0.00 | 0.00 | 0.00 | 94 | 1016.0 | |
| 20260505015318 | 4 | 0.0 | 0.0 | 0.00 | 0.00 | 0.00 | 94 | 1016.1 | |
| 20260505014338 | 5 | 0.0 | 0.0 | 0.00 | 0.00 | 0.00 | 94 | 1016.2 | |
| 20260505013318 | 5 | 168 | 0.0 | 1.6 | 0.00 | 0.00 | 0.00 | 94 | 1016.3 |
| 20260505012319 | 5 | 0.0 | 0.0 | 0.00 | 0.00 | 0.00 | 94 | 1016.3 |